User: anonymous   Login
Location: Montr�al
(45.5000°N, 73.5830°W)
Time: 03:22:59
(UTC-05:00)
Language:

Cosmos 1151 Rocket - Orbit

View from above orbital plane
View from above orbital plane
View from above satellite
View from above satellite

Ground track
Ground track

The orbit data is extracted from the following two-line orbital elements,

1 11672U 80005B   14331.84944326  .00000639  00000-0  67885-4 0  1901
2 11672 082.5173 239.1175 0017627 166.5229 270.8362 14.87357203884780
Epoch (UTC): 27 November 2014 20:23:11
Eccentricity: 0.0017627
inclination: 82.5173°
perigee height: 594 km
apogee height: 618 km
right ascension of ascending node: 239.1175°
argument of perigee: 166.5229°
revolutions per day: 14.87357203
mean anomaly at epoch: 270.8362°
orbit number at epoch: 88478

The dashed part of the orbit path shows where the satellite is in the earth's shadow,  

DLR